Location: ?????????
(55.1082°N, 37.9683°E)
Time: 13:22:58
(UTC+00:00)

Daily predictions for brighter satellites

Satellite Brightness Start Highest point End
(mag) Time Altitude Azimuth Time Altitude Azimuth Time Altitude Azimuth
Cosmos 2297 Rocket 2.6 13:38:30 10° NNW 13:43:55 42° NE 13:49:17 10° ESE
Cosmos 2151 4.2 13:44:15 10° NNE 13:47:18 19° ENE 13:50:21 10° ESE
Cosmos 1741 Rocket 4.1 13:43:33 10° SSW 13:48:52 86° ESE 13:54:13 10° NNE
Aureole 3 Rocket 4.2 13:45:28 10° SSW 13:49:52 57° WNW 13:56:02 10° N
Cosmos 1092 Rocket 4.0 13:45:02 10° N 13:51:14 70° ENE 13:57:20 10° SSE
CZ-2D R/B 4.1 13:49:35 10° ESE 13:51:53 19° ENE 13:54:11 10° NNE
BlueWalker 3 2.8 13:51:01 10° W 13:54:31 47° SSW 13:58:01 10° ESE
Meteor 2-1 Rocket 4.4 13:50:30 10° S 13:56:25 79° E 14:02:17 10° NNE
Cosmos 1743 3.6 13:56:12 10° NNE 13:58:45 21° ENE 14:01:17 10° ESE
Lacrosse 4 Rocket 1.8 13:55:34 10° SSW 13:59:26 43° ESE 14:03:13 10° NE
ATLAS CENTAUR R/B 0.8 13:57:14 10° NW 14:00:30 56° NE 14:03:40 10° ESE
CZ-4C R/B 2.8 13:55:47 10° NW 14:01:56 62° NNE 14:09:51 10° ESE
Cosmos 1484 Rocket 2.4 14:00:11 10° SSE 14:03:42 79° ENE 14:07:14 10° NNW
Iridium 45 4.2 14:02:28 10° S 14:05:36 68° E 14:08:49 10° N
Cosmos 724 4.4 14:01:05 10° NW 14:07:11 64° NE 14:13:07 10° ESE
Cosmos 2034 Rocket 4.1 14:01:26 10° S 14:07:45 85° E 14:14:11 10° NNE
JB-3 4.1 14:04:11 10° NNE 14:07:54 78° ESE 14:11:33 10° S
Meteor 1-28 Rocket 3.5 14:06:31 10° NNE 14:09:40 36° E 14:12:47 10° SSE
NOSS 3-3 (A) 4.5 14:05:11 10° NW 14:12:08 81° NE 14:20:33 10° SE
Iridium 51 4.1 14:09:31 10° SSE 14:12:29 43° E 14:15:34 10° NNE
Cosmos 1602 Rocket 4.2 14:10:49 10° N 14:14:52 34° ENE 14:18:51 10° SE
MOS 1 Rocket 4.0 14:10:27 10° SE 14:14:56 37° ENE 14:19:41 10° N
Cosmos 1570 Rocket 4.0 14:09:38 10° NNW 14:15:02 81° ENE 14:20:22 10° SSE
Cosmos 1867 3.8 14:09:51 10° NW 14:15:12 51° NNE 14:20:32 10° ESE
IGS 5A 3.3 14:12:42 10° SSE 14:16:41 83° ENE 14:20:40 10° NNW
Cosmos 1455 Rocket 3.0 14:12:56 10° S 14:17:16 87° ESE 14:21:40 10° NNE
Lacrosse 5 rocket 2.0 14:15:05 10° SSW 14:18:34 37° SE 14:21:16 15° E
Cosmos 1844 Rocket 4.3 14:14:58 10° NNW 14:18:39 17° NNE 14:21:38 12° NE
Cosmos 2084 3.6 14:14:58 10° SW 14:19:06 60° SE 14:22:25 15° ENE
CENTAUR R/B 2.7 14:14:20 10° SSW 14:20:04 67° SE 14:26:39 13° NE
IRS-P3 4.4 14:15:43 10° SE 14:20:43 44° ENE 14:25:45 10° N
Cosmos 2084 Rocket 3.5 14:17:03 10° NW 14:21:13 57° NNE 14:25:22 10° ESE
SAR-Lupe-4 3.8 14:18:18 10° SE 14:21:41 43° ENE 14:25:06 10° N
Cosmos 836 Rocket 4.5 14:18:20 10° NNW 14:23:37 84° ENE 14:28:52 10° SSE
Cosmos 2266 Rocket 4.2 14:19:35 10° N 14:25:33 45° ENE 14:31:23 10° SE
Cosmos 2263 Rocket 3.0 14:20:42 10° NNW 14:25:41 31° NE 14:30:18 12° E
Cosmos 292 Rocket 3.8 14:21:33 10° SSW 14:26:21 84° WNW 14:31:12 10° NNE
Cosmos 1315 Rocket 2.6 14:22:56 10° S 14:26:45 69° E 14:30:35 10° NNE
Resurs 01 Rocket 3.5 14:28:01 12° NE 14:28:01 12° NE 14:29:08 10° NNE
SL-16 R/B 2.5 14:21:09 10° NNE 14:27:26 75° ESE 14:33:38 10° SSW
Cosmos 1607 3.9 14:22:10 10° NW 14:28:24 79° NE 14:34:42 10° SE
SJ 16-02 3.6 14:26:03 10° W 14:28:47 16° NW 14:31:32 10° N
SAR-Lupe-1 4.3 14:25:24 10° SE 14:28:51 46° ENE 14:32:21 10° N
NOSS 7 (H) 4.4 14:26:18 10° NW 14:29:10 42° NNE 14:31:04 18° E
CZ-2D R/B 4.4 14:25:50 10° ESE 14:29:19 26° ENE 14:32:46 10° N
YAOGAN 1 3.6 14:29:23 10° ESE 14:32:48 24° ENE 14:36:14 10° N
Intercosmos 24 3.8 14:29:15 10° NNW 14:33:41 86° ENE 14:37:17 10° SSE
Cosmos 2227 Rocket 2.5 14:29:27 10° NNW 14:34:53 45° NE 14:40:17 10° ESE
Cosmos 1782 3.0 14:31:59 10° SSE 14:35:20 38° E 14:37:56 15° NNE
USA 215 3.3 14:29:44 13° E 14:35:42 77° N 14:42:17 10° W
CORIOLIS 4.1 14:32:10 10° SSE 14:37:31 89° WSW 14:42:54 10° NNW
Cosmos 405 Rocket 2.6 14:37:39 10° NNW 14:40:56 69° WSW 14:44:09 10° S
Cosmos 1356 Rocket 3.3 14:36:53 10° SSW 14:40:56 90° WSW 14:45:04 10° NNE
USA 281 4.5 14:38:01 16° ENE 14:40:57 21° NNE 14:45:39 10° NNW
Cosmos 773 Rocket 4.0 14:36:10 10° NNW 14:41:24 88° WSW 14:46:39 10° SSE
Cosmos 2369 Rocket 3.0 14:36:54 10° WSW 14:42:19 46° NW 14:47:43 10° NNE
Cosmos 1733 1.4 14:43:16 10° NNW 14:45:12 81° WSW 14:47:06 10° S
SJ-12 3.6 14:43:12 10° SSE 14:46:58 73° ENE 14:50:46 10° NNW
Cosmos 2208 Rocket 4.1 14:43:38 10° NNW 14:48:50 78° WSW 14:53:59 10° SSE
SJ-6F 4.3 14:45:00 10° SSE 14:48:53 58° ENE 14:52:51 10° N
Cosmos 1825 Rocket 4.0 14:45:12 10° N 14:49:17 37° ENE 14:53:19 10° SE
ARIANE 5 R/B 2.5 14:44:32 10° SSE 14:49:36 88° ENE 14:54:47 10° NNW
Cosmos 1933 4.5 14:47:11 10° SE 14:49:46 22° E 14:49:46 22° E
Cosmos 1758 Rocket 3.5 14:46:12 10° NNW 14:50:34 84° W 14:54:51 10° S
Cosmos 2278 Rocket 4.1 14:46:53 10° WNW 14:50:49 19° NNW 14:54:37 11° NNE
Cosmos 1943 Rocket 4.0 14:47:27 10° WNW 14:51:09 18° NNW 14:54:44 10° NNE
GEOS 3 Rocket 3.7 14:48:18 19° NE 14:52:13 70° SE 14:57:35 10° SW
SPOT 1/Viking Rocket 3.7 14:47:16 10° SE 14:52:17 51° ENE 14:57:19 10° N
Cosmos 2228 3.0 14:48:07 10° SSW 14:52:21 81° W 14:56:39 10° N
Cosmos 2098 Rocket 3.0 14:53:01 10° S 14:56:58 59° E 15:01:41 10° NNE
Cosmos 1697 Rocket 3.8 14:53:32 10° SSE 14:57:45 22° ESE 14:58:26 22° E
Meteor 1-20 Rocket 4.0 14:53:33 10° NNW 14:59:04 74° ENE 15:04:31 10° SSE
BREEZE-M DEB (TANK) 3.6 14:57:06 10° WSW 14:59:56 42° S 15:05:50 14° ESE
AQUARIUS 4.1 15:02:22 10° SSE 15:06:47 86° WSW 15:11:14 10° NNW
NOSS 2-2 (C) 2.5 15:06:39 10° SW 15:09:45 76° SE 15:10:15 57° ENE
IRS-1C 4.5 15:05:04 10° S 15:10:22 69° WSW 15:15:43 10° NNW
USA 290 2.8 15:10:28 10° NW 15:13:41 58° WSW 15:16:53 10° SSE
NOSS 3-2 (C) 3.9 15:09:09 10° S 15:13:43 33° ESE 15:15:10 29° E
NOSS 3-2 (A) 3.2 15:10:02 10° SSW 15:15:09 66° SE 15:18:17 29° ENE
Cosmos 1655 Rocket 4.0 15:09:51 10° N 15:16:02 56° ENE 15:22:08 10° SSE
Cosmos 783 Rocket 4.5 15:11:46 10° NNW 15:17:07 89° ENE 15:22:25 10° SSE
SMAP 4.2 15:13:07 10° S 15:17:36 46° W 15:22:06 10° NNW
Cosmos 2082 4.3 15:14:07 10° NNW 15:19:24 37° NE 15:20:46 33° ENE
Cosmos 1241 Rocket 4.5 15:13:21 10° SSW 15:19:39 66° SE 15:22:58 29° NE
Cosmos 1538 Rocket 4.2 15:17:49 10° NNW 15:22:55 48° NE 15:25:01 32° ESE
CZ-2D R/B 4.1 15:20:38 10° S 15:23:36 40° W 15:26:37 10° NNW
Cosmos 2151 3.3 15:20:26 10° NNW 15:24:33 64° W 15:28:39 10° S
Cosmos 1606 Rocket 3.7 15:22:54 10° S 15:27:09 50° E 15:27:45 46° ENE
Cosmos 2297 Rocket 3.0 15:22:37 10° NW 15:28:08 53° WSW 15:33:36 10° S
UNK 4.1 15:24:00 10° N 15:28:34 63° WNW 15:33:05 10° SSW
Meteor 1-25 Rocket 4.3 15:23:01 10° NNW 15:28:54 88° WSW 15:34:43 10° S
BREEZE-M DEB (TANK) 4.2 15:25:50 10° WSW 15:29:07 48° S 15:33:46 22° ESE
Cosmos 1076 Rocket 3.5 15:26:09 10° N 15:30:24 56° ENE 15:32:39 26° SE
Okean 1-7 Rocket 3.7 15:26:57 10° NNW 15:31:22 76° W 15:35:44 10° S
BlueWalker 3 4.5 15:29:00 10° W 15:31:28 18° SW 15:33:57 10° S
Cosmos 1743 4.0 15:29:25 10° NNW 15:32:26 35° W 15:35:25 10° SSW
Cosmos 1656 3.6 15:28:28 10° SSW 15:34:06 85° ESE 15:37:03 30° NE
Resurs 1-3 3.4 15:30:06 10° SSE 15:34:22 72° ENE 15:38:41 10° NNW
ATLAS CENTAUR R/B 3.3 15:32:30 10° WNW 15:35:05 22° WSW 15:37:35 10° S
Cosmos 1544 Rocket 4.2 15:31:50 10° SSW 15:36:09 54° WNW 15:40:20 11° N
Cosmos 1503 Rocket 4.0 15:31:23 10° S 15:36:32 59° ESE 15:37:54 44° ENE
Meteor 2-10 4.1 15:32:07 10° N 15:37:16 52° ENE 15:39:46 29° SE
Lacrosse 4 Rocket 2.5 15:33:35 10° WSW 15:37:22 37° NW 15:38:43 28° N
NOAA 15 4.5 15:33:14 10° SSE 15:38:33 87° ENE 15:43:52 10° NNW
OceanSat 1 rocket 4.5 15:34:14 10° SSE 15:38:57 69° ENE 15:43:39 10° NNW
Cosmos 2219 3.3 15:36:23 10° NNW 15:42:01 54° NE 15:43:14 45° E
Cosmos 1461 4.1 15:39:05 10° S 15:41:17 26° SSE 15:41:17 26° SSE
SJ-7 4.0 15:42:23 56° SSE 15:43:08 88° ENE 15:46:55 10° NNW
Cosmos 1354 Rocket 4.1 15:38:19 10° S 15:43:23 49° ESE 15:43:36 49° E
Meteor 1-5 Rocket 4.0 15:38:47 10° NNW 15:44:08 85° ENE 15:49:33 10° SSE
SKYMED 2 3.4 15:45:54 67° ENE 15:46:14 70° ESE 15:50:34 10° S
Spot 4 Rocket 4.0 15:41:48 10° SSE 15:46:55 84° WSW 15:52:04 10° NNW
CZ-4C R/B 3.4 15:43:54 10° NW 15:50:29 59° SW 15:58:43 10° SSE
COSMO-SKYMED 1 3.9 15:52:52 26° SSE 15:52:52 26° SSE 15:54:47 10° S
SL-19 R/B 4.2 15:47:37 10° SSE 15:52:59 86° WSW 15:58:41 10° NNW
Cosmos 1726 Rocket 3.7 15:49:14 10° S 15:53:23 62° SE 15:53:23 62° SE
PSLV R/B 3.3 15:52:38 32° S 15:54:25 81° WSW 15:58:30 10° NNW
Lacrosse 5 rocket 1.4 15:51:42 10° WSW 15:54:52 61° W 15:54:52 61° W
Cosmos 44 Rocket 4.3 15:52:04 10° NW 15:56:25 35° NNE 15:56:25 35° NNE
Cosmos 2084 4.2 15:53:57 10° W 15:57:56 41° NNW 15:58:08 41° NNW
Cosmos 1777 Rocket 3.9 15:53:26 10° SSW 15:58:42 88° WNW 16:00:11 49° NNE
Cosmos 1867 4.3 15:53:35 10° NW 15:58:52 52° SW 16:03:16 15° SSE
Cosmos 1980 Rocket 3.9 15:54:18 10° SSE 15:55:56 18° SSE 15:55:56 18° SSE
Resurs 01 Rocket 3.3 16:05:25 22° N 16:05:25 22° N 16:07:03 10° N
CZ-2D R/B 4.3 15:59:55 10° S 16:04:01 50° W 16:08:06 10° NNW
Cosmos 1844 Rocket 3.6 15:59:08 10° NNW 16:03:16 32° NNE 16:03:16 32° NNE
YAOGAN 1 3.1 16:04:12 10° S 16:08:23 56° W 16:12:36 10° NNW
Cosmos 2263 Rocket 2.1 16:04:33 10° NW 16:10:15 84° WSW 16:12:02 46° SSE
SL-16 R/B 4.1 16:05:12 10° N 16:10:33 31° NW 16:15:52 10° WSW
CENTAUR R/B 3.1 16:04:48 10° W 16:11:00 55° NNW 16:13:45 37° NE
Cosmos 1486 Rocket 4.4 16:08:03 10° SW 16:13:13 60° WNW 16:14:56 40° N
Cosmos 1953 Rocket 3.9 16:10:24 10° NNW 16:14:48 64° W 16:16:13 40° SSW
Nadezhda 2 Rocket 4.3 16:09:52 10° N 16:16:04 73° ENE 16:17:08 60° SE
Cosmos 2360 4.4 16:11:39 10° SW 16:17:21 70° NW 16:18:51 49° NNE
USA 81 4.0 16:12:28 10° N 16:17:46 81° W 16:23:02 10° S
USA 215 3.2 16:17:05 54° ESE 16:18:46 83° SSW 16:25:22 10° WNW
Cosmos 2227 Rocket 3.0 16:13:36 10° NW 16:19:02 49° WSW 16:24:26 10° S
USA 281 3.6 16:24:53 46° NNE 16:24:53 46° NNE 16:30:28 10° NNW
Cosmos 2369 Rocket 4.1 16:23:41 10° WNW 16:27:47 20° NNW 16:29:28 18° N
GEOS 3 Rocket 4.3 16:29:20 44° N 16:30:04 47° NNW 16:35:12 10° W
Cosmos 1943 Rocket 4.2 16:33:40 10° NNW 16:36:13 16° N 16:36:13 16° N
Cosmos 2278 Rocket 4.2 16:33:32 10° NNW 16:36:26 17° N 16:36:26 17° N
Cosmos 1697 Rocket 2.9 16:35:27 10° SW 16:40:11 65° SW 16:40:11 65° SW
Cosmos 2082 4.4 16:58:12 10° NW 17:02:38 51° WNW 17:02:38 51° WNW
NOSS 3-2 (C) 3.9 16:58:39 10° WSW 17:02:36 52° WSW 17:02:36 52° WSW
NOSS 3-2 (A) 4.0 17:00:48 10° W 17:05:38 49° NW 17:05:38 49° NW
Lacrosse 4 Rocket 4.4 17:13:48 10° NW 17:14:13 11° NW 17:14:13 11° NW
Cosmos 2219 4.5 17:20:45 10° NW 17:25:09 37° W 17:25:09 37° W
Cosmos 2263 Rocket 4.4 17:49:29 10° WNW 17:53:23 19° W 17:53:46 19° WSW
CENTAUR R/B 4.0 17:56:17 10° WNW 18:00:51 38° NW 18:00:51 38° NW
